This demonstration page uses our WeatherBlox Daily Observations layout. Learn more.

40.92945, -100.16068

Hourly Observations for June 19, 2017

Temp ( °F °C ) Dew Point ( °F °C ) Humidity (%) Winds ( mph kmh ) Pressure ( in mb ) Visibility ( mi km ) Precip ( " mm )
12:15 am 00:15 Cloudy with Rain 65 18.3 53 11.5 65 65 NE 6 9 29.97 1015 10 16.0934 0 0
12:35 am 00:35 Cloudy with Light Rain 64 17.8 53 11.9 69 69 NE 7 11 29.97 1015 10 16.0934 0 0
12:55 am 00:55 Cloudy with Light Rain 64 17.8 53 11.5 67 67 NNE 7 11 29.97 1015 10 16.0934 0 0
1:15 am 01:15 Cloudy with Light Rain 63 17.4 55 12.7 74 74 E 5 7 29.97 1015 10 16.0934 0 0
1:35 am 01:35 Cloudy with Light Rain 63 17.4 55 12.6 74 74 SSE 7 11 29.97 1015 10 16.0934 0 0
1:55 am 01:55 Cloudy 63 17.3 54 12.2 72 72 S 6 9 29.97 1015 10 16.0934 0 0
2:15 am 02:15 Mostly Cloudy 63 17.3 54 12.3 73 73 Calm 29.97 1015 10 16.0934 0 0
2:35 am 02:35 Cloudy 63 17.1 55 12.6 75 75 SW 7 11 29.97 1015 10 16.0934 0 0
2:55 am 02:55 Mostly Cloudy 64 17.5 53 11.7 69 69 SSW 7 11 29.94 1014 10 16.0934 0 0
3:15 am 03:15 Partly Cloudy with Light Rain 64 17.7 52 11.1 65 65 SSW 9 15 29.94 1014 10 16.0934 0 0
3:35 am 03:35 Partly Cloudy 64 18 52 11.3 65 65 SSW 7 11 29.94 1014 10 16.0934 0 0
3:55 am 03:55 Partly Cloudy 64 17.8 54 12.2 70 70 Calm 29.94 1014 10 16.0934 0 0
4:15 am 04:15 Clear 62 16.6 55 13 79 79 NNE 3 6 29.94 1014 10 16.0934 0 0
4:35 am 04:35 Clear 62 16.6 55 12.8 78 78 NNE 5 7 29.94 1014 10 16.0934 0 0
4:55 am 04:55 Clear 62 16.4 55 12.6 78 78 NNE 3 6 30 1016 10 16.0934 0 0
5:15 am 05:15 Partly Cloudy 60 15.8 55 12.6 81 81 Calm 30 1016 10 16.0934 0 0
5:35 am 05:35 Mostly Cloudy 61 16.2 55 12.5 79 79 NNE 5 7 30 1016 10 16.0934 0 0
5:55 am 05:55 Mostly Cloudy 61 15.9 55 12.7 81 81 NNE 6 9 30 1016 10 16.0934 0 0
6:15 am 06:15 Mostly Cloudy 60 15.8 55 12.5 81 81 N 6 9 30 1016 10 16.0934 0 0
6:35 am 06:35 Mostly Cloudy 60 15.6 55 12.6 82 82 N 3 6 30 1016 10 16.0934 0 0
6:55 am 06:55 Mostly Cloudy 60 15.8 55 13 84 84 N 3 6 30 1016 10 16.0934 0 0
7:15 am 07:15 Mostly Cloudy 61 16.2 56 13.6 85 85 Calm 30 1016 10 16.0934 0 0
7:35 am 07:35 Partly Cloudy 62 16.9 58 14.2 84 84 Calm 29.97 1015 10 16.0934 0 0
7:55 am 07:55 Partly Cloudy 63 17.4 56 13.5 78 78 Calm 29.97 1015 10 16.0934 0 0
8:15 am 08:15 Sunny 64 18 56 13.5 75 75 W 3 6 30 1016 10 16.0934 0 0
8:35 am 08:35 Sunny 66 18.8 57 14 74 74 NW 3 6 30 1016 10 16.0934 0 0
8:55 am 08:55 Partly Cloudy 69 20.4 58 14.4 69 69 NW 3 6 30 1016 10 16.0934 0 0
9:15 am 09:15 Mostly Cloudy 70 21 58 14.4 66 66 WNW 6 9 30 1016 10 16.0934 0 0
9:35 am 09:35 Cloudy 72 22.1 56 13.5 58 58 NW 6 9 30 1016 10 16.0934 0 0
9:55 am 09:55 Partly Cloudy 73 23 55 12.9 53 53 NW 5 7 29.97 1015 10 16.0934 0 0
10:15 am 10:15 Sunny 75 23.9 54 12.2 48 48 NW 8 13 29.97 1015 10 16.0934 0 0
10:35 am 10:35 Sunny 76 24.7 53 11.6 44 44 NW 7 11 29.97 1015 10 16.0934 0 0
10:55 am 10:55 Partly Cloudy 74 23.6 53 11.7 47 47 WNW 8 13 30 1016 10 16.0934 0 0
11:15 am 11:15 Partly Cloudy 78 25.3 53 11.6 42 42 WNW 6 9 29.97 1015 10 16.0934 0 0
11:35 am 11:35 Partly Cloudy 79 26.3 50 10 36 36 N 8 13 29.97 1015 10 16.0934 0 0
11:55 am 11:55 Partly Cloudy 80 26.7 49 9.2 33 33 NNW 8 13 29.97 1015 10 16.0934 0 0
12:15 pm 12:15 Partly Cloudy 80 26.9 49 9.3 33 33 N 6 9 29.97 1015 10 16.0934 0 0
12:35 pm 12:35 Partly Cloudy 81 27.3 47 8.2 30 30 N 7 11 29.97 1015 10 16.0934 0 0
12:55 pm 12:55 Partly Cloudy 83 28.3 49 9.3 30 30 N 7 11 29.91 1013 10 16.0934 0 0
1:15 pm 13:15 Partly Cloudy 82 28 44 6.9 26 26 NNW 8 13 29.91 1013 10 16.0934 0 0
1:35 pm 13:35 Partly Cloudy 83 28.5 43 6.3 24 24 NNW 12 19 29.91 1013 10 16.0934 0 0
1:55 pm 13:55 Sunny 83 28.4 43 5.9 24 24 NW 3 6 29.91 1013 10 16.0934 0 0
2:15 pm 14:15 Sunny 83 28.6 43 6.2 24 24 NW 7 11 29.91 1013 10 16.0934 0 0
2:35 pm 14:35 Sunny 83 28.6 42 5.5 23 23 NW 6 9 29.91 1013 10 16.0934 0 0
2:55 pm 14:55 Sunny 84 29 45 7 25 25 NW 9 15 29.91 1013 10 16.0934 0 0
3:15 pm 15:15 Sunny 84 29 43 6.2 24 24 WNW 13 20 29.91 1013 10 16.0934 0 0
3:35 pm 15:35 Partly Cloudy 84 29.1 42 5.8 23 23 WNW 7 11 29.88 1012 10 16.0934 0 0
3:55 pm 15:55 Sunny 85 29.5 42 5.7 22 22 W 12 19 29.88 1012 10 16.0934 0 0
4:15 pm 16:15 Partly Cloudy 86 29.9 44 6.8 23 23 WNW 8 13 29.88 1012 10 16.0934 0 0
4:35 pm 16:35 Partly Cloudy 86 30 44 6.5 23 23 WNW 13 20 29.88 1012 10 16.0934 0 0
4:55 pm 16:55 Sunny 85 29.7 42 5.6 22 22 W 12 19 29.88 1012 10 16.0934 0 0
5:15 pm 17:15 Sunny 86 29.9 44 6.5 23 23 WNW 7 11 29.88 1012 10 16.0934 0 0
5:35 pm 17:35 Partly Cloudy 84 28.9 45 7 25 25 NW 9 15 29.88 1012 10 16.0934 0 0
5:55 pm 17:55 Mostly Cloudy 86 30 43 6.1 22 22 W 12 19 29.88 1012 10 16.0934 0 0
6:15 pm 18:15 Partly Cloudy 85 29.5 44 6.6 24 24 NW 10 17 29.88 1012 10 16.0934 0 0
6:35 pm 18:35 Sunny 85 29.5 45 7.3 25 25 NW 9 15 29.88 1012 10 16.0934 0 0
6:55 pm 18:55 Sunny 84 29.1 46 7.7 26 26 NW 12 19 29.88 1012 10 16.0934 0 0
7:15 pm 19:15 Sunny 84 28.8 44 6.8 25 25 NW 9 15 29.88 1012 10 16.0934 0 0
7:35 pm 19:35 Sunny 83 28.2 46 8 28 28 WNW 8 13 29.88 1012 10 16.0934 0 0
7:55 pm 19:55 Sunny 81 27.3 49 9.2 32 32 WNW 6 9 29.88 1012 10 16.0934 0 0
8:15 pm 20:15 Sunny 78 25.3 52 11.3 42 42 WNW 5 7 29.91 1013 10 16.0934 0 0
8:35 pm 20:35 Sunny 77 25.1 51 10.8 41 41 Calm 29.91 1013 10 16.0934 0 0
8:55 pm 20:55 Sunny 78 25.3 49 9.5 37 37 Calm 29.91 1013 10 16.0934 0 0
9:15 pm 21:15 Clear 77 24.9 49 9.7 38 38 Calm 29.91 1013 10 16.0934 0 0
9:35 pm 21:35 Clear 72 22.3 51 10.8 48 48 Calm 29.94 1014 10 16.0934 0 0
9:55 pm 21:55 Clear 71 21.6 52 11.1 51 51 SSW 3 6 29.94 1014 10 16.0934 0 0
10:15 pm 22:15 Clear 68 20.2 53 11.6 58 58 Calm 29.94 1014 10 16.0934 0 0
10:35 pm 22:35 Clear 66 18.9 53 11.5 62 62 Calm 29.97 1015 7 11.26538 0 0
10:55 pm 22:55 Clear 66 18.7 53 11.5 63 63 Calm 30 1016 10 16.0934 0 0
11:15 pm 23:15 Clear 64 17.6 52 11.3 67 67 Calm 30 1016 10 16.0934 0 0
11:35 pm 23:35 Hazy 62 16.9 54 12.3 74 74 Calm 30.03 1017 5 8.0467 0 0
11:55 pm 23:55 Clear 64 18 54 12.3 69 69 Calm 29.97 1015 7 11.26538 0 0

Powered by AerisWeather